Basrah, Iraq

9:47 PM +03 on May 25, 2017 (GMT +0300)
Basrah International

Weather History for ORMM - February, 2013

Change the Weather History Date:

Saturday, February 2, 2013

  Actual Average Record
Temperature  
Mean Temperature 58 °F -  
Max Temperature 68 °F - - ()
Min Temperature 48 °F - - ()
Degree Days  
Heating Degree Days 7    
Growing Degree Days 8 (Base 50)    
Moisture  
Dew Point 44 °F    
Average Humidity 62    
Maximum Humidity 82    
Minimum Humidity 31    
Precipitation  
Precipitation 0.02 in - - ()
Sea Level Pressure  
Sea Level Pressure 30.04 in    
Wind  
Wind Speed 2 mph ()    
Max Wind Speed 9 mph    
Max Gust Speed -    
Visibility 6.1 miles    
Events      
T = Trace of Precipitation, MM = Missing Value Source: Averaged Metar Reports

Daily Weather History Graph

Daily Weather History Graph

Search for Another Location

Airport or City:

Trip Planner

Search our weather history database for the weather conditions in past years. The results will help you decide how hot, cold, wet, or windy it might be!

Date:

Astronomy

Feb. 02, 2013 Rise Set
Actual Time 6:39 AM +03 5:26 PM +03
Civil Twilight 6:14 AM +03 5:51 PM +03
Nautical Twilight 5:45 AM +03 6:19 PM +03
Astronomical Twilight 5:17 AM +03 6:48 PM +03
Moon 11:41 PM +03 (2/2) 10:05 AM +03 (2/2)
Length of Visible Light 11h 36m
Length of Day
10h 46m
Waning Gibbous, 63% of the Moon is Illuminated
Feb 2
Waning Gibbous
Feb 3
Last Quarter
Feb 10
New
Feb 17
First Quarter
Feb 25
Full

Hourly Weather History & Observations

Time (+03) Temp. Dew Point Humidity Pressure Visibility Wind Dir Wind Speed Gust Speed Precip Events Conditions
12:00 AM 53 °F 44 °F 63% 30.01 in 6 mi Calm Calm - -  
12:00 AM 51.8 °F 42.8 °F 71% 30.01 in - North - - N/A   Clear
1:00 AM 51.8 °F 42.8 °F 71% 30.01 in - Calm Calm - N/A   Clear
2:00 AM 51.8 °F 42.8 °F 71% 29.98 in - Calm Calm - N/A   Clear
3:00 AM 51 °F 46 °F 75% 29.98 in 6 mi SSE 4.5 mph - -  
3:00 AM 48.2 °F 41.0 °F 76% 29.98 in - Calm Calm - N/A   Clear
4:00 AM 50.0 °F 42.8 °F 76% 29.98 in - Calm Calm - N/A   Clear
5:00 AM 50.0 °F 42.8 °F 76% 29.98 in - Calm Calm - N/A   Clear
6:00 AM 53 °F 44 °F 63% 30.01 in 6 mi SSE 6.7 mph - -   Clear
6:00 AM 50.0 °F 44.6 °F 82% 30.01 in - Calm Calm - N/A   Clear
7:00 AM 50.0 °F 44.6 °F 82% 30.01 in 6.2 mi Calm Calm - N/A   Mostly Cloudy
8:00 AM 51.8 °F 46.4 °F 82% 30.04 in 6.2 mi Calm Calm - N/A   Mostly Cloudy
9:00 AM 55 °F 47 °F 68% 30.07 in 6 mi South 4.5 mph - -   Mostly Cloudy
9:00 AM 55.4 °F 46.4 °F 72% 30.06 in 6.2 mi Calm Calm - N/A   Mostly Cloudy
10:00 AM 55.4 °F 48.2 °F 77% 30.09 in 6.2 mi Calm Calm - N/A   Overcast
11:00 AM 55.4 °F 46.4 °F 72% 30.09 in 6.2 mi Calm Calm - N/A   Overcast
12:00 PM 62 °F 46 °F 44% 29.76 in 6 mi West 8.9 mph - -  
12:00 PM 62.6 °F 44.6 °F 52% 30.06 in 6.2 mi SSW 9.2 mph - N/A   Scattered Clouds
1:00 PM 64.4 °F 44.6 °F 49% 30.04 in - SSW 6.9 mph - N/A   Clear
2:00 PM 66.2 °F 41.0 °F 40% 30.04 in - South 9.2 mph - N/A   Clear
3:00 PM 68 °F 44 °F 31% 30.05 in 6 mi SSW 4.6 mph - -   Scattered Clouds
3:00 PM 66.2 °F 41.0 °F 40% 30.04 in - SE 6.9 mph - N/A   Clear
4:00 PM 66.2 °F 41.0 °F 40% 30.06 in - South 6.9 mph - N/A   Clear
5:00 PM 66.2 °F 42.8 °F 43% 30.06 in - SSW 6.9 mph - N/A   Clear
6:00 PM 64 °F 44 °F 37% 30.09 in 6 mi Calm Calm - -   Partly Cloudy
6:00 PM 64.4 °F 42.8 °F 45% 30.09 in - Calm Calm - N/A   Clear
7:00 PM 62.6 °F 42.8 °F 48% 30.09 in - Calm Calm - N/A   Clear
8:00 PM 59.0 °F 46.4 °F 63% 30.12 in - Calm Calm - N/A   Clear
9:00 PM 58 °F 47 °F 58% 30.15 in 6 mi Calm Calm - -  
9:00 PM 57.2 °F 46.4 °F 67% 30.12 in - Calm Calm - N/A   Clear
10:00 PM 55.4 °F 46.4 °F 72% 30.15 in - Calm Calm - N/A   Clear
11:00 PM 53.6 °F 44.6 °F 72% 30.18 in - Calm Calm - N/A   Clear